When you browse on this site, cookies collect data to enhance your experience and personalize the content and advertising you see.
Visit our Privacy Policy to learn more. By continuing to use the site, you agree to this use of cookies and data.
  • In Portugal
  • List of Countries
  • For 7 days
  • Water Temperature
  • Satellite Maps
  • Weather Map
  • Weather Widgets
  • user-avatar
    Login

    Hourly Weather Lomnica

    Today, 21 March, Thursday

    Time Temperature Precipitation Wind Pressure Humidity
    00:00 +3°C° 0 mm 2 mps 742 mmHg 68%
    01:00 +3°C° 0 mm 2 mps 742 mmHg 67%
    02:00 +3°C° 0 mm 2 mps 742 mmHg 68%
    03:00 +3°C° 0 mm 2 mps 742 mmHg 69%
    04:00 +3°C° 0 mm 2 mps 742 mmHg 70%
    05:00 +3°C° 0 mm 2 mps 742 mmHg 71%
    06:00 +4°C° 0 mm 2 mps 742 mmHg 71%
    07:00 +4°C° 0 mm 2 mps 742 mmHg 71%
    08:00 +6°C° 0 mm 2 mps 742 mmHg 70%
    09:00 +8°C° 0 mm 2 mps 743 mmHg 69%
    10:00 +10°C° 0 mm 2 mps 743 mmHg 68%
    11:00 +12°C° 0 mm 2 mps 743 mmHg 66%
    12:00 +13°C° 0 mm 2 mps 743 mmHg 64%
    13:00 +14°C° 0 mm 2 mps 742 mmHg 62%
    14:00 +14°C° 0 mm 2 mps 742 mmHg 63%
    15:00 +14°C° 0 mm 2 mps 742 mmHg 63%
    16:00 +14°C° 0 mm 2 mps 741 mmHg 64%
    17:00 +12°C° 0 mm 2 mps 741 mmHg 71%
    18:00 +11°C° 0 mm 1 mps 741 mmHg 78%
    19:00 +9°C° 0 mm 1 mps 741 mmHg 85%
    20:00 +9°C° 0 mm 1 mps 741 mmHg 86%
    21:00 +8°C° 0 mm 1 mps 741 mmHg 88%
    22:00 +8°C° 0 mm 1 mps 741 mmHg 89%
    23:00 +8°C° 0 mm 1 mps 741 mmHg 89%

    Tomorrow, 22 March, Friday

    Time Temperature Precipitation Wind Pressure Humidity
    00:00 +8°C° 0 mm 1 mps 741 mmHg 90%
    01:00 +8°C° 0 mm 1 mps 741 mmHg 91%
    02:00 +7°C° 0 mm 1 mps 741 mmHg 91%
    03:00 +7°C° 0 mm 1 mps 741 mmHg 91%
    04:00 +7°C° 0 mm 1 mps 741 mmHg 91%
    05:00 +7°C° 0 mm 1 mps 741 mmHg 90%
    06:00 +7°C° 0 mm 0 mps 741 mmHg 90%
    07:00 +7°C° 0 mm 0 mps 741 mmHg 90%
    08:00 +10°C° 0 mm 1 mps 742 mmHg 83%
    09:00 +12°C° 0 mm 1 mps 742 mmHg 77%
    10:00 +14°C° 0 mm 1 mps 742 mmHg 70%
    11:00 +14°C° 0 mm 1 mps 742 mmHg 69%
    12:00 +15°C° 0 mm 1 mps 742 mmHg 68%
    13:00 +15°C° 0 mm 1 mps 742 mmHg 66%
    14:00 +15°C° 0 mm 1 mps 741 mmHg 66%
    15:00 +15°C° 0 mm 1 mps 741 mmHg 66%
    16:00 +15°C° 0 mm 2 mps 740 mmHg 66%
    17:00 +14°C° 0 mm 1 mps 740 mmHg 73%
    18:00 +12°C° 0 mm 1 mps 740 mmHg 79%
    19:00 +11°C° 0 mm 1 mps 739 mmHg 86%
    20:00 +11°C° 0 mm 1 mps 739 mmHg 87%
    21:00 +10°C° 0 mm 1 mps 739 mmHg 88%
    22:00 +10°C° 0 mm 1 mps 739 mmHg 89%
    23:00 +10°C° 0 mm 1 mps 739 mmHg 89%

    Day after tomorrow, 23 March, Saturday

    Time Temperature Precipitation Wind Pressure Humidity
    00:00 +9°C° 0 mm 1 mps 739 mmHg 90%
    01:00 +9°C° 0 mm 1 mps 739 mmHg 90%
    02:00 +9°C° 0 mm 1 mps 738 mmHg 90%
    03:00 +8°C° 0 mm 2 mps 738 mmHg 90%
    04:00 +8°C° 0 mm 2 mps 738 mmHg 90%
    05:00 +8°C° 0 mm 2 mps 738 mmHg 89%
    06:00 +8°C° 0 mm 2 mps 737 mmHg 88%
    07:00 +8°C° 0 mm 2 mps 737 mmHg 87%
    08:00 +12°C° 0 mm 2 mps 738 mmHg 78%
    09:00 +14°C° 0 mm 2 mps 738 mmHg 70%
    10:00 +16°C° 0 mm 2 mps 738 mmHg 61%
    11:00 +17°C° 0 mm 2 mps 737 mmHg 57%
    12:00 +18°C° 0 mm 2 mps 737 mmHg 53%
    13:00 +18°C° 0 mm 2 mps 737 mmHg 50%
    14:00 +18°C° 0 mm 2 mps 737 mmHg 50%
    15:00 +18°C° 0 mm 2 mps 736 mmHg 51%
    16:00 +18°C° 0 mm 2 mps 736 mmHg 52%
    17:00 +16°C° 0 mm 2 mps 736 mmHg 60%
    18:00 +14°C° 0 mm 2 mps 736 mmHg 68%
    19:00 +13°C° 0 mm 2 mps 736 mmHg 76%
    20:00 +12°C° 0 mm 2 mps 736 mmHg 81%
    21:00 +12°C° 0 mm 2 mps 737 mmHg 86%
    22:00 +10°C° 0 mm 2 mps 737 mmHg 91%
    23:00 +10°C° 0.1 mm 3 mps 737 mmHg 91%

    24 March, Sunday

    Time Temperature Precipitation Wind Pressure Humidity
    00:00 +9°C° 0.1 mm 3 mps 738 mmHg 91%
    01:00 +9°C° 0.1 mm 3 mps 738 mmHg 92%
    02:00 +8°C° 0 mm 3 mps 738 mmHg 88%
    03:00 +7°C° 0 mm 3 mps 738 mmHg 84%
    04:00 +5°C° 0 mm 3 mps 738 mmHg 80%
    05:00 +5°C° 0 mm 2 mps 738 mmHg 78%
    06:00 +5°C° 0 mm 2 mps 738 mmHg 75%
    07:00 +4°C° 0 mm 2 mps 738 mmHg 73%
    08:00 +5°C° 0 mm 2 mps 738 mmHg 68%
    09:00 +6°C° 0 mm 2 mps 738 mmHg 62%
    10:00 +7°C° 0 mm 2 mps 738 mmHg 57%
    11:00 +8°C° 0 mm 2 mps 738 mmHg 54%
    12:00 +8°C° 0 mm 2 mps 738 mmHg 52%
    13:00 +9°C° 0 mm 2 mps 737 mmHg 50%
    14:00 +9°C° 0 mm 2 mps 737 mmHg 49%
    15:00 +9°C° 0 mm 2 mps 737 mmHg 49%
    16:00 +9°C° 0 mm 2 mps 736 mmHg 49%
    17:00 +8°C° 0 mm 2 mps 736 mmHg 52%
    18:00 +6°C° 0 mm 2 mps 736 mmHg 55%
    19:00 +5°C° 0 mm 2 mps 737 mmHg 58%
    20:00 +5°C° 0 mm 2 mps 737 mmHg 61%
    21:00 +5°C° 0 mm 1 mps 737 mmHg 65%
    22:00 +4°C° 0 mm 1 mps 737 mmHg 68%
    23:00 +3°C° 0 mm 1 mps 737 mmHg 69%

    25 March, Monday

    Time Temperature Precipitation Wind Pressure Humidity
    00:00 +3°C° 0 mm 1 mps 737 mmHg 70%
    01:00 +3°C° 0 mm 1 mps 736 mmHg 72%
    02:00 +3°C° 0 mm 1 mps 736 mmHg 72%
    03:00 +1°C° 0 mm 2 mps 736 mmHg 73%
    04:00 +1°C° 0 mm 2 mps 736 mmHg 74%
    05:00 +2°C° 0 mm 2 mps 736 mmHg 74%
    06:00 +1°C° 0 mm 3 mps 736 mmHg 74%
    07:00 0°C° 0 mm 4 mps 736 mmHg 74%
    08:00 +1°C° 0 mm 4 mps 736 mmHg 67%
    09:00 +3°C° 0 mm 5 mps 736 mmHg 60%
    10:00 +4°C° 0 mm 6 mps 736 mmHg 52%
    11:00 +4°C° 0.1 mm 6 mps 736 mmHg 57%
    12:00 +4°C° 0.1 mm 7 mps 735 mmHg 61%
    13:00 +4°C° 0.1 mm 7 mps 735 mmHg 65%
    14:00 +4°C° 0.1 mm 7 mps 734 mmHg 65%
    15:00 +4°C° 0.1 mm 7 mps 734 mmHg 66%
    16:00 +4°C° 0.1 mm 7 mps 734 mmHg 66%
    17:00 +4°C° 0.2 mm 7 mps 734 mmHg 71%
    18:00 +3°C° 0.2 mm 7 mps 733 mmHg 75%
    19:00 +3°C° 0.2 mm 7 mps 733 mmHg 80%
    20:00 +2°C° 0.1 mm 7 mps 733 mmHg 80%
    21:00 +2°C° 0.1 mm 7 mps 733 mmHg 80%
    22:00 0°C° 0.1 mm 7 mps 733 mmHg 80%
    23:00 0°C° 0.3 mm 7 mps 733 mmHg 80%

    26 March, Tuesday

    Time Temperature Precipitation Wind Pressure Humidity
    00:00 0°C° 0.3 mm 7 mps 733 mmHg 81%
    01:00 0°C° 0.3 mm 7 mps 733 mmHg 82%
    02:00 +1°C° 0.1 mm 6 mps 732 mmHg 82%
    03:00 -1°C° 0.1 mm 6 mps 732 mmHg 83%
    04:00 -2°C° 0.1 mm 6 mps 732 mmHg 83%
    05:00 -2°C° 0 mm 6 mps 732 mmHg 82%
    06:00 -2°C° 0 mm 7 mps 732 mmHg 80%
    07:00 -2°C° 0 mm 7 mps 732 mmHg 78%
    08:00 -1°C° 0.1 mm 7 mps 733 mmHg 73%
    09:00 -1°C° 0.1 mm 8 mps 733 mmHg 67%
    10:00 0°C° 0.1 mm 8 mps 733 mmHg 62%
    11:00 +1°C° 0 mm 8 mps 734 mmHg 57%
    12:00 +1°C° 0 mm 8 mps 734 mmHg 52%
    13:00 +3°C° 0 mm 7 mps 734 mmHg 46%
    14:00 +3°C° 0 mm 7 mps 734 mmHg 47%
    15:00 +3°C° 0 mm 7 mps 734 mmHg 48%
    16:00 +3°C° 0 mm 7 mps 734 mmHg 48%
    17:00 +2°C° 0.1 mm 6 mps 735 mmHg 55%
    18:00 +1°C° 0.1 mm 5 mps 735 mmHg 61%
    19:00 +1°C° 0.1 mm 3 mps 736 mmHg 67%
    20:00 0°C° 0 mm 3 mps 736 mmHg 70%
    21:00 0°C° 0 mm 3 mps 737 mmHg 72%
    22:00 -1°C° 0 mm 2 mps 737 mmHg 75%
    23:00 -2°C° 0 mm 2 mps 737 mmHg 77%
    Show more